Location: Ebersteinburg
(48.7792°N, 8.2708°E)
Time: 15:59:37
(UTC+00:00)

Daily predictions for brighter satellites

Satellite Brightness Start Highest point End
(mag) Time Altitude Azimuth Time Altitude Azimuth Time Altitude Azimuth
Cosmos 1455 2.2 20:07:50 10° N 20:11:42 78° E 20:15:33 10° SSE
Cosmos 1825 Rocket 4.0 20:12:16 10° SSE 20:16:30 45° E 20:20:47 10° NNE
ATLAS CENTAUR R/B 2.4 20:14:53 10° NNW 20:18:15 30° NE 20:21:32 10° ESE
Cosmos 1703 3.4 20:17:17 10° S 20:21:03 52° E 20:24:51 10° NNE
Cosmos 1812 Rocket 4.0 20:17:37 10° NNW 20:21:55 61° W 20:26:10 10° S
COSMOS 2428 3.8 20:17:31 10° SSE 20:22:03 25° ESE 20:26:36 10° NE
Cosmos 1844 3.8 20:17:47 10° NNW 20:23:37 78° ENE 20:29:20 10° SSE
Cosmos 2322 4.1 20:20:23 10° S 20:25:45 43° ESE 20:31:09 10° NE
Cosmos 1602 Rocket 4.4 20:25:34 10° SSW 20:29:54 55° WNW 20:34:19 10° N
Cosmos 2263 Rocket 4.4 20:27:36 10° WNW 20:31:26 19° W 20:35:15 10° SW
Nadezhda 1 Rocket 4.4 20:26:06 10° NNW 20:32:30 70° W 20:38:50 10° S
Cosmos 1709 Rocket 4.2 20:26:29 10° S 20:32:38 61° E 20:38:54 10° NNE
MetOp-B 4.5 20:29:20 10° S 20:34:39 67° WSW 20:40:01 10° NNW
Atlas Centaur 2 4.1 20:32:05 10° SSW 20:35:22 15° S 20:38:47 10° SE
Terra 2.7 20:31:41 10° SE 20:36:03 38° ENE 20:40:27 10° N
Cosmos 2237 Rocket 4.0 20:33:33 10° ESE 20:36:04 13° E 20:38:36 10° ENE
CARTOSAT-1 3.9 20:32:57 10° SSE 20:37:08 55° ENE 20:41:22 10° N
Cosmos 2333 4.4 20:32:05 10° S 20:37:31 51° ESE 20:43:01 10° NE
Cosmos 2219 Rocket 2.8 20:32:55 10° S 20:37:58 36° ESE 20:43:04 10° NE
Cosmos 2360 Rocket 2.3 20:34:07 10° SSW 20:39:46 87° WNW 20:45:29 10° NNE
IGS 5A 3.6 20:36:10 10° S 20:40:18 74° WSW 20:44:30 10° NNW
Cosmos 2333 Rocket 2.5 20:42:19 10° S 20:47:42 46° ESE 20:53:09 10° NE
ATLAS 2AS CENTAUR R/B 3.8 20:43:32 10° NW 20:50:53 43° NNE 20:57:40 10° ESE
Cosmos 1315 Rocket 3.3 20:46:59 10° N 20:50:58 48° ENE 20:54:13 15° SE
Resurs 01 Rocket 3.5 20:48:38 10° SSW 20:52:20 26° W 20:56:03 10° NW
Cosmos-2242 3.5 20:50:10 10° NNW 20:54:28 62° W 20:58:46 10° S
Cosmos 1818 3.8 20:49:38 10° SW 20:55:05 79° NW 21:00:34 10° NE
Cosmos 773 Rocket 4.0 20:52:29 10° SSW 20:57:45 72° ESE 21:03:02 10° NNE
SL-16 R/B 4.1 20:53:51 10° WSW 20:59:00 35° NW 21:04:11 10° NNE
Cosmos 2221 3.4 20:55:20 10° N 20:59:24 36° ENE 21:02:29 16° SE
ERS-1 Rocket 3.0 20:56:51 12° SSE 21:01:34 85° WSW 21:06:39 10° NNW
GEOS 3 Rocket 3.7 20:57:48 10° NE 21:03:14 87° SE 21:08:39 10° SW
USA 215 3.3 21:00:10 10° ENE 21:06:37 57° SE 21:13:02 10° SW
Cosmos 2278 Rocket 2.7 21:02:59 10° NNW 21:08:32 51° NE 21:13:09 15° SE
Cosmos 1892 4.2 21:07:01 16° ESE 21:08:43 21° E 21:11:37 10° NE
ATLAS 5 CENTAUR R/B 2.0 21:07:36 10° SW 21:11:46 65° NW 21:16:31 10° NE
Meteor 1-11 4.2 21:06:42 10° S 21:12:20 90° NW 21:18:05 10° NNE
Cosmos 1844 Rocket 3.7 21:08:04 10° NW 21:13:12 39° WSW 21:18:16 10° S
Cosmos 1400 Rocket 4.1 21:10:06 10° NNW 21:13:45 35° W 21:17:21 10° SSW
Gblst 52 Del rocket 4.3 21:08:55 10° WNW 21:14:36 82° SSW 21:20:33 12° ESE
SPOT 5 3.1 21:13:56 14° S 21:18:19 70° WSW 21:23:08 10° NNW
Lacrosse 5 rocket 3.6 21:16:57 10° WNW 21:20:29 25° N 21:23:52 10° NE
SL-16 R/B 4.2 21:19:22 10° ESE 21:20:30 11° E 21:21:39 10° E
USA 81 4.2 21:19:57 10° S 21:25:14 79° W 21:30:34 10° N
Cosmos 2058 3.7 21:25:00 21° SE 21:27:07 35° E 21:30:53 10° NNE
BREEZE M DEB (TANK) 3.2 21:25:46 10° W 21:27:34 20° SSW 21:27:39 20° SSW
Cosmos 2181 Rocket 4.3 21:22:21 10° NNW 21:28:40 67° W 21:34:15 13° S
Cosmos 1408 4.1 21:29:05 18° ESE 21:30:11 21° E 21:32:57 10° NE
In-Cosmos 22 Rocket 4.4 21:29:55 19° SSE 21:33:27 49° E 21:38:34 10° NNE
Cosmos 2074 Rocket 4.0 21:29:15 15° S 21:34:25 70° E 21:40:37 10° NNE
TSX-5 3.8 21:31:51 10° NNW 21:35:16 66° ENE 21:37:36 23° SE
Cosmos 1076 Rocket 4.1 21:36:08 23° SSE 21:38:17 41° E 21:42:20 10° NNE
Cosmos 1680 Rocket 4.2 21:35:41 21° SSE 21:38:39 38° ESE 21:43:33 10° NE
USA 267 3.3 21:34:04 14° ESE 21:39:57 89° SSW 21:46:34 10° NW
Cosmos 2084 4.0 21:41:27 10° NW 21:45:46 50° SW 21:48:05 25° S
Cosmos 1842 Rocket 3.7 21:41:57 10° NNW 21:46:17 66° W 21:49:02 21° S
JB-3 4.1 21:43:50 10° NNE 21:47:42 80° E 21:49:57 24° S
Cosmos 2151 4.4 21:47:18 20° ESE 21:48:51 24° E 21:52:20 10° NE
MTI 3.7 21:48:35 10° N 21:51:41 80° WNW 21:53:11 28° SSW
Cosmos 923 Rocket 4.0 21:52:20 19° S 21:56:04 67° ESE 22:01:21 10° NNE
Cosmos 2327 Rocket 4.5 21:52:14 20° S 21:56:36 71° E 22:02:43 10° NNE
ATLAS CENTAUR R/B 2.2 21:53:48 10° NW 21:57:07 32° WSW 21:58:26 24° SSW
Cosmos 1825 3.2 21:58:09 26° SE 21:59:14 31° E 22:02:37 10° NNE
Cosmos 2369 Rocket 4.4 21:56:28 10° N 22:00:26 19° NE 22:04:23 10° E
ALOS 2 3.9 21:58:03 18° ESE 22:00:29 31° ENE 22:04:22 10° N
Cosmos 1980 3.7 21:56:55 19° S 22:00:54 61° ESE 22:06:29 10° NE
Cosmos 967 Rocket 4.5 21:56:41 10° SSW 22:03:08 77° SE 22:09:37 10° NE
Cosmos 44 4.5 22:05:15 20° ESE 22:05:23 20° ESE 22:08:36 10° ENE
COSMOS 2428 3.2 22:00:18 10° SW 22:05:54 60° WNW 22:11:33 10° NNE
Cosmos 1869 4.1 22:03:23 10° NNW 22:07:12 45° W 22:09:22 23° SSW
GP-B 4.4 22:05:46 10° NNE 22:09:38 28° E 22:11:23 22° ESE
NOSS 0 Rocket 3.9 22:07:31 12° SSW 22:13:16 85° ESE 22:19:29 10° NNE
Terra 3.2 22:10:33 14° SSW 22:13:52 30° W 22:18:03 10° NNW
Cosmos 1624 Rocket 4.1 22:08:48 10° NNW 22:14:03 68° ENE 22:16:57 26° SE
NOSS 3-4 (A) 3.8 22:07:29 10° NW 22:14:26 87° SW 22:19:46 22° SE
NOSS 3-4 (C) 3.8 22:07:35 10° NW 22:14:33 87° SW 22:19:55 22° SE
Cosmos 2237 Rocket 2.1 22:14:58 19° SSW 22:19:09 78° ESE 22:24:53 10° NNE
SL-4 R/B 3.4 22:19:54 10° ENE 22:19:54 10° ENE 22:20:07 10° NE
Genesis I 3.3 22:18:36 36° S 22:19:47 52° SE 22:23:36 10° NE
Cosmos 2344 3.6 22:16:02 17° SSW 22:21:48 56° ESE 22:29:34 10° NE
Cosmos 2219 Rocket 3.3 22:16:32 10° SW 22:21:51 43° NW 22:27:12 10° NNE
Elektron 1 4.3 22:21:21 25° SW 22:23:11 76° SE 22:28:42 10° NE
Atlas Centaur 2 4.5 22:20:27 10° SW 22:21:21 11° SSW 22:21:21 11° SSW
DELTA 2 R/B (1) 4.3 22:24:55 10° SW 22:29:42 30° S 22:30:03 30° SSE
Thor Agena Rocket 3.4 22:25:14 10° NNE 22:30:23 88° ESE 22:33:18 26° SSW
Cosmos 2333 Rocket 3.7 22:26:53 10° WSW 22:32:07 36° NW 22:37:25 10° NNE
Cosmos 2221 4.3 22:33:14 10° NNW 22:36:48 25° W 22:39:20 15° SW
Iridium 2 4.2 22:37:20 10° NNW 22:41:05 52° W 22:42:26 33° SSW
BREEZE-M DEB (TANK) 1.2 22:37:38 10° WNW 22:41:18 68° SSW 22:41:22 68° S
Cosmos 1371 Rocket 4.1 22:36:34 10° NNW 22:41:47 66° WSW 22:44:15 31° S
ATLAS 2AS CENTAUR R/B 2.9 22:34:50 10° NW 22:42:21 68° SW 22:46:25 27° SSE
EO 1 Del DPAF 3.4 22:39:44 10° N 22:43:29 68° WNW 22:44:59 34° SSW
Cosmos 1892 4.1 22:41:59 18° SW 22:44:13 32° WNW 22:47:41 10° N
MOS 1-B Rocket 4.4 22:37:25 10° NNE 22:45:18 87° WNW 22:49:57 22° SSW
Cosmos 1766 Rocket 3.7 22:44:24 37° SSE 22:45:55 61° E 22:50:17 10° NNE
Gbstr 26 Del rocket 4.5 22:49:28 19° ESE 22:49:28 19° ESE 22:51:17 10° E
Okean 3 Rocket 3.5 22:47:03 37° S 22:48:44 75° E 22:53:11 10° NNE
Cosmos 1328 Rocket 3.7 22:44:32 10° N 22:48:50 61° ENE 22:50:25 36° SE
Aureole 2 Rocket 1.7 22:46:03 10° NNW 22:48:54 90° SSW 22:48:59 83° SSE
USA 215 3.7 22:43:15 10° NE 22:49:44 64° NNW 22:56:10 10° WSW
Cosmos 1606 2.7 22:47:18 10° N 22:51:12 82° E 22:52:19 45° SSE
Cosmos 2112 Rocket 4.3 22:48:24 20° SW 22:52:11 67° WNW 22:57:33 10° NNE
Cosmos 2278 Rocket 3.4 22:47:29 10° NW 22:52:23 31° WSW 22:54:59 21° SSW
Cosmos 2297 3.7 22:48:24 10° NNW 22:54:12 89° ENE 22:57:11 30° SSE
Cosmos 2218 Rocket 4.2 22:50:54 29° SSE 22:54:14 63° E 23:00:28 10° NNE
Cosmos 158 Rocket 4.4 22:52:56 18° SW 22:56:24 56° WNW 23:01:15 10° NNE
Cosmos 1420 Rocket 4.0 22:52:43 10° NNW 22:58:02 83° ENE 23:00:36 32° SSE
Cosmos 2366 rocket 4.1 22:56:35 29° SSE 22:59:55 67° E 23:06:13 10° NNE
Lacrosse 5 rocket 2.8 22:56:45 10° NW 23:00:31 34° NNE 23:04:04 10° E
Cosmos 1943 Rocket 2.7 22:55:14 10° NNW 23:00:49 54° NE 23:04:40 20° SE
Cosmos 1633 3.8 23:01:11 27° ESE 23:01:45 28° E 23:04:55 10° NNE
SL-16 R/B 2.2 23:00:46 31° S 23:03:30 66° ESE 23:09:09 10° NNE
Cosmos 1408 4.1 23:03:24 19° WSW 23:05:04 28° WNW 23:08:12 10° NNW
Cosmos 2056 Rocket 4.0 23:00:28 10° NNW 23:05:41 50° WSW 23:07:58 31° SSW
Cosmos 1959 Rocket 4.4 23:06:20 30° S 23:09:31 79° E 23:15:45 10° NNE
YAOGAN 11 4.4 23:09:09 32° SE 23:10:58 59° ENE 23:15:19 10° N
Cosmos 1743 Rocket 4.4 23:12:36 30° SE 23:13:54 37° E 23:17:55 10° NNE
Cosmos 2341 Rocket 4.3 23:11:46 24° SSW 23:15:38 62° WNW 23:21:48 10° N
Cosmos 332 Rocket 3.7 23:14:35 10° NNW 23:19:25 83° ENE 23:21:28 35° SSE
USA 267 4.1 23:21:24 26° SSW 23:23:29 32° SW 23:29:14 10° WNW
Meteor 2-3 Rocket 3.7 23:21:02 33° S 23:23:42 80° E 23:29:26 10° NNE
IRIDIUM 104 4.5 23:23:26 32° SSW 23:25:52 67° W 23:31:06 10° N
Cosmos 2151 4.2 23:23:52 22° WSW 23:25:59 35° WNW 23:29:56 10° N
Helios 1A 2.9 23:24:53 44° S 23:26:11 80° WSW 23:30:22 10° NNW
Cosmos 405 3.2 23:24:50 10° N 23:28:22 63° ENE 23:29:08 48° SE
Meteor 1-26 Rocket 4.4 23:26:25 10° NNW 23:32:27 75° W 23:35:20 32° S
Cosmos 1452 Rocket 3.5 23:27:33 10° NNW 23:32:50 76° WSW 23:35:06 35° S
CZ-4C R/B 3.3 23:26:58 10° NW 23:33:52 62° NE 23:41:55 10° ESE
SL-8 Rocket 4.3 23:30:59 25° SSW 23:34:35 59° WNW 23:40:41 10° N
Cosmos 1825 4.1 23:32:56 16° WSW 23:34:48 22° WNW 23:37:49 10° NNW
COSMOS 2455 2.8 23:28:45 10° NW 23:34:49 86° WSW 23:38:24 26° SSE
PSLV R/B 4.1 23:31:17 10° NNE 23:35:20 43° E 23:36:34 34° SE
Cosmos 1340 2.8 23:34:23 43° SW 23:35:23 63° WNW 23:39:09 10° N
ALOS 2 3.7 23:35:27 26° SW 23:36:47 32° W 23:40:45 10° NNW
Cosmos 1933 4.1 23:33:24 10° NNW 23:37:11 40° W 23:38:13 33° SW
Cosmos 1408 Rocket 3.7 23:35:56 37° SSW 23:37:32 68° WNW 23:41:57 10° N
SL-16 R/B 4.3 23:33:29 10° ESE 23:38:33 27° ENE 23:43:39 10° N
Cosmos 1151 Rocket 3.8 23:34:40 10° NNW 23:38:44 39° W 23:40:03 31° SW
Cosmos 1727 Rocket 4.0 23:38:38 10° NNW 23:44:51 72° W 23:48:04 30° S
APEX 3.4 23:42:20 10° NW 23:44:22 36° WNW 23:44:22 36° WNW
Cosmos 2369 Rocket 2.2 23:39:46 10° NNW 23:45:24 79° ENE 23:48:49 25° SE
Resurs 1-4 Rocket 4.3 23:42:27 10° NE 23:45:30 15° E 23:48:33 10° ESE
Cosmos 44 3.5 23:43:38 23° WSW 23:46:10 59° NW 23:50:35 10° NNE
Cosmos 1500 Rocket 3.5 23:44:49 41° S 23:46:19 77° E 23:50:43 10° NNE
GP-B 4.3 23:42:59 10° NNW 23:46:57 32° W 23:48:50 23° WSW
SL-4 R/B 3.4 23:48:59 12° WNW 23:48:59 12° WNW 23:49:20 10° NW
Cosmos 371 Rocket 4.0 23:44:25 10° NW 23:48:58 40° WSW 23:50:25 32° SW
ISS -1.2 23:51:00 11° ESE 23:51:00 11° ESE 23:51:20 10° E
SeaSat 1 4.2 23:46:10 10° ENE 23:49:41 19° ESE 23:51:20 17° SE
Helios 1B rocket 2.7 23:50:04 10° NNE 23:54:09 56° E 23:55:23 39° SSE
CREW DRAGON DEMO-1 DEB 3.3 23:54:49 23° W 23:56:32 61° NNW 23:59:35 10° ENE
